Regional Weather Roundup
Issued by NWS

Home | Current Version | Previous Version | Text Only | Print | Product List | Glossary On
Versions: 1 2 3 4 5 6 7 8 9 10 11 12 13 14 15 16 17 18 19 20 21 22 23 24 25 26 27 28 29 30 31 32 33 34 35 36 37 38 39 40 41 42 43 44 45 46 47 48 49 50
000
ASUS45 KTFX 201619
RWRMT
MONTANA HOURLY WEATHER ROUNDUP
NATIONAL WEATHER SERVICE GREAT FALLS MT
919 AM MST SAT DEC 20 2014

NOTE: "FAIR" INDICATES FEW OR NO CLOUDS BELOW 12000 FEET WITH NO
SIGNIFICANT WEATHER AND/OR OBSTRUCTIONS TO VISIBILITY.

* THESE STATIONS ARE NOT UNDER NWS QUALITY CONTROL. THEY DO NOT
   REPORT WEATHER SUCH AS PRECIPITATION OR FOG.

MTZ001>007-043-201700-
WEST OF THE DIVIDE
CITY           SKY/WX    TMP DP  RH WIND       PRES   REMARKS
KALISPELL      FOG       27  25  92 CALM      29.91S VSB M1/4
MISSOULA       FOG       27  27 100 W3        29.96F
BUTTE          PTSUNNY   21  18  88 CALM      29.92F
MULLAN PASS    SNOW      27  25  92 VRB5      29.80F VSB M1/4 WCI  21
* ESSEX        N/A       28  27  96 N/A        N/A
* EUREKA APT   PTSUNNY   36  30  79 S7        29.89F WCI  30
* HAMILTON APT CLOUDY    28  27  96 N3        29.94R
* LIBBY APT    PTSUNNY   30  28  92 CALM       N/A   VSB M1/4
* LINCOLN      N/A       20  18  92 NW2        N/A
* LOOKOUT PASS N/A       28  28 100 S3         N/A
* POLSON       N/A       29  28  96 N/A        N/A
* RONAN APT    PTSUNNY   30  28  92 N/A        N/A
* SEELEY LAKE  N/A       14  11  88 NE1        N/A
* THOMP F APT  CLOUDY    25  24  96 E3         N/A
$$

MTZ008-052>055-201700-
SOUTHWEST MONTANA
CITY           SKY/WX    TMP DP  RH WIND       PRES   REMARKS
BOZEMAN        PTSUNNY   25  21  85 SE5       29.94F WCI  19
DILLON         CLOUDY    28  19  69 SW3       29.94F
* W YELLOWSTON PTSUNNY   26  25  96 SW3G8      N/A
* THREE FORKS  PTSUNNY   28  28 100 N/A        N/A
* BOULDER HILL N/A       22  16  78 S8         N/A   WCI  13
* MONIDA PASS  N/A       24  24 100 SE12       N/A   WCI  13
* RAYNOLDS PAS N/A       25  10  53 S10        N/A   WCI  15
* WHITEHALL    N/A       29  23  78 NW2        N/A
* WISE RIVER   N/A       18  16  92 W5         N/A   WCI  11
$$

MTZ009>010-012-014-046-048-049-054-201700-
EAST SLOPES AND CENTRAL MONTANA
CITY           SKY/WX    TMP DP  RH WIND       PRES   REMARKS
CUT BANK       CLOUDY    34  21  59 W21       29.80S WCI  22
GREAT FALLS    PTSUNNY   36  21  54 SW15      29.85S WCI  27
HELENA         PTSUNNY   27  21  78 E3        29.93S
MALMSTROM AFB  PTSUNNY   36  21  54 SW16      29.87S WCI  26
* CONRAD       CLOUDY    21  16  81 CALM       N/A
* DEARBORN     N/A       39  20  46 SE6G14     N/A   WCI  35
* EAST GLACIER N/A       30  19  64 W24G32     N/A   WCI  16
* MONARCH      N/A       30  10  43 S8G19      N/A   WCI  22
* PENDROY      N/A       26  15  63 NE6        N/A   WCI  19
* ROGERS PASS  N/A       27  19  72 SE6G11     N/A   WCI  20
* SWEET GRASS  N/A       29  19  66 S8         N/A   WCI  21
* WHITE SULPH  N/A       24  15  68 NE7        N/A   WCI  16
$$

MTZ011-013-016-021-035-040-045-047-050-051-201700-
NORTH CENTRAL MONTANA
CITY           SKY/WX    TMP DP  RH WIND       PRES   REMARKS
HAVRE          SUNNY     32  23  69 SW16      29.83F WCI  21
LEWISTOWN      PTCLDY    30  18  61 NW6       29.87S WCI  24
* N BAR RANCH  SUNNY     34  12  40 CALM      29.88R
* CHINOOK      PTCLDY    34  25  70 W5        29.84S WCI  29
* CHESTER      N/A       24  18  78 S3         N/A
* DENTON       N/A       27  18  69 SW10       N/A   WCI  18
* GEYSER       N/A       27  13  55 W9         N/A   WCI  18
* JUDITH GAP   N/A       33  17  52 W16G22     N/A   WCI  23
* LOMA         N/A       31  21  66 W6         N/A   WCI  25
$$

MTZ017>020-022>027-061-062-201700-
NORTHEAST MONTANA
CITY           SKY/WX    TMP DP  RH WIND       PRES   REMARKS
GLASGOW        PTCLDY    30  25  82 W7        29.82S WCI  23
GLENDIVE       PTCLDY    30  25  82 CALM      29.87R
JORDAN         PTCLDY    30  25  82 W3        29.86S
SIDNEY         SUNNY     28  25  89 S8        29.87R WCI  20
WOLF POINT     PTCLDY    21  19  92 CALM      29.85R
* BEAVER HILL  N/A       31  25  78 S11        N/A   WCI  22
* CIRCLE       N/A       32  29  89 SW4        N/A
* LINDSAY DVD  N/A       37  29  73 W11        N/A   WCI  29
* NAVAJO       N/A       29  27  92 W11        N/A   WCI  19
* PLENTYWOOD A PTCLDY    25  25 100 CALM      29.80S
* POPLAR APT   SUNNY     25  21  85 NE5       29.83F VSB 3    WCI  19
* SACO         N/A       35  29  79 SW12       N/A   WCI  27
$$

MTZ028>042-056>058-201700-
SOUTHCENTRAL AND SOUTHEAST MONTANA
CITY           SKY/WX    TMP DP  RH WIND       PRES   REMARKS
BAKER          SUNNY     32  27  82 NW3       29.88R
BILLINGS       PTSUNNY   30  19  64 SW14      29.92S WCI  19
LIVINGSTON     CLOUDY    39  21  48 SW22G31   29.88F WCI  29
MILES CITY     PTSUNNY   32  27  82 SW6       29.89S WCI  26
* FORSYTH APT  PTCLDY    37  27  67 S5        29.91S WCI  33
* LAUREL APT   PTSUNNY   28  16  61 N/A        N/A
* ROUNDUP APT  PTCLDY    34  19  54 N/A        N/A
* ALZADA       N/A       33  25  72 W4         N/A
* HYSHAM       N/A       33  21  61 W4         N/A
* LAME DEER    N/A       34  24  67 W7         N/A   WCI  28
* REED POINT   N/A       29  23  78 E4         N/A
* ROSCOE HILL  N/A       34   9  35 SE9        N/A   WCI  27
$$

REGIONAL REPORTS...DAKOTAS
CITY           SKY/WX    TMP DP  RH WIND       PRES   REMARKS
WILLISTON      PTSUNNY   21  19  92 S3        29.84R
DICKINSON      PTSUNNY   32  27  82 SW6       29.83R WCI  26
BEACH          SUNNY     32  28  85 SW9       29.86S WCI  24
CROSBY         PTSUNNY   23  23 100 S3        29.83R
TIOGA          PTCLDY    23  23 100 S3        29.85F
WATFORD CITY   SUNNY     25  25 100 CALM      29.82S
BISMARCK       CLOUDY    16  14  92 NE3       29.92S
GRAND FORKS    FOG       27  27 100 SW5       30.00F VSB 1    WCI  21
FARGO          FOG       30  27  89 S12       30.02F WCI  20
BUFFALO SD     PTSUNNY   37  27  67 W6        29.83R WCI  32
RAPID CITY     CLOUDY    34  27  76 CALM      29.91S
$$

REGIONAL REPORTS...WYOMING/IDAHO/WASHINGTON
CITY           SKY/WX    TMP DP  RH WIND       PRES   REMARKS
GILLETTE       CLOUDY    30  25  82 CALM      29.93R
SHERIDAN       SUNNY     27  19  72 CALM      29.94R
CODY           CLOUDY    37  21  52 SW9       29.92S WCI  30
YELLOWSTONE LA CLOUDY    25  19  78 VRB3      29.99F
SALMON         CLOUDY    27  25  92 CALM      30.00S VSB 1/2
MULLAN PASS    SNOW      27  25  92 VRB5      29.80S VSB M1/4 WCI  21
SAND POINT     CLOUDY    36  36 100 N5        29.88F WCI  32
SPOKANE        LGT RAIN  37  34  89 SE7       29.85F WCI  32
$$

REGIONAL REPORTS...ALBERTA
CITY           SKY/WX    TMP DP  RH WIND       PRES   REMARKS
CALGARY        PTSUNNY   32  12  43 SW6       29.69F WCI  26
LETHBRIDGE     PTSUNNY   36  23  59 W28G35    29.75F WCI  23
MEDICINE HAT   SUNNY     32  25  75 SW12G18   29.75R WCI  23
EDMONTON       SUNNY     14  10  84 S5        29.66F WCI   6
WATERTON GATE  N/A       34  21  59 SW12G21    N/A   WCI  25
CARDSTON       N/A       34  18  52 S3         N/A
MILK RIVER     N/A       19  14  81 NW6        N/A   WCI  11
$$

REGIONAL REPORTS...SASKATCHEWAN
CITY           SKY/WX    TMP DP  RH WIND       PRES   REMARKS
SWIFT CURRENT  SUNNY     28  27  96 W13G18    29.70R WCI  17
REGINA         LGT SNOW  21  19  92 SE15      29.76S VSB 2    WCI   7
VAL MARIE      N/A       34  32  92 W16        N/A   WCI  24
ASSINIBOIA     N/A       34  34 100 SW12       N/A   WCI  25
CORONACH       N/A       28  27  96 SE5        N/A   WCI  22

$$




USA.gov is the U.S. government's official web portal to all federal, state and local government web resources and services.